"Pseudo-MPEC" for A10rWtQ

Created 2020 Oct 19 23:07:02 UT using Find_Orb

Click here for an explanation of pseudo-MPECs

 
 Astrometry: 
     A10rWtQ  C2020 10 17.26963120 44 05.23 -46 35 39.8    ~AHIq 18.34oVNEOCPT08
     A10rWtQ  C2020 10 17.27285620 44 05.16 -46 35 40.0    ~AHIq 18.29oVNEOCPT08
     A10rWtQ  C2020 10 17.27838720 44 04.98 -46 35 40.7    ~AHIq 18.80oVNEOCPT08
     A10rWtQ  C2020 10 17.28944220 44 04.92 -46 35 39.7    ~AHIq 18.79oVNEOCPT08

Station data:
(T08) ATLAS-MLO, Mauna Loa  (N19.536152 W155.576050)  US/Hawaii.  Observers
   L. Denneau, A. Heinze, H. Weiland, J. Tonry, H. Flewelling, A.
   Fitzsimmons, D. Young, B. Stalder. Measurers L. Denneau, A. Heinze, J.
   Tonry. 0.5-m f/2.0 Schmidt + CCD.

Orbital elements:  A10rWtQ
   Perihelion 2021 Jan 25.933202 +/- 540 TT = 22:23:48 (JD 2459240.433202)
Epoch 2020 Oct 17.0 TT = JDT 2459139.5   Earth MOID: 0.0974   Ve: 0.0091
M 250.30411531 +/- 90               (J2000 ecliptic)          AutoNEOCP
n   1.08681665 +/- 0.661            Peri.    5.14895 +/- 80
a   0.93691140 +/- 0.38             Node   139.12062 +/- 18
e   0.2315945 +/- 0.213             Incl.    7.52405 +/- 30
P   0.91/331.24d           H 19.1   G  0.15   U 12.5  SR
q 0.71992781 +/- 2.81    Q 1.15389499 +/- 43.3
From 4 observations 2020 Oct. 17 (28.5 min); mean residual 0".42
Residuals in arcseconds: 
201017 T08  .35+  .28+    201017 T08  .81-  .62-    
201017 T08  .15+  .09+    201017 T08  .31+  .27+    

Ephemerides (geocentric):
Date (UTC) HH   RA              Dec         delta   r     elong  mag " sig PA
---- -- -- --  -------------   -----------  ------ ------ -----  --- ---- ---
2020 10 19 23  20 44 29.248   -46 36 35.19  .24410 1.0394  93.4 18.7  306   9
2020 10 20 00  20 44 29.774   -46 36 35.91  .24417 1.0392  93.4 18.7  310   9
2020 10 20 01  20 44 30.304   -46 36 36.62  .24424 1.0391  93.4 18.7  313   9
2020 10 20 02  20 44 30.840   -46 36 37.31  .24430 1.0390  93.3 18.7  317   9
2020 10 20 03  20 44 31.380   -46 36 37.98  .24437 1.0388  93.3 18.7  321   9
2020 10 20 04  20 44 31.925   -46 36 38.64  .24444 1.0387  93.3 18.7  325   9
2020 10 20 05  20 44 32.474   -46 36 39.28  .24450 1.0386  93.2 18.7  328   9
2020 10 20 06  20 44 33.028   -46 36 39.90  .24457 1.0384  93.2 18.7  332   9
2020 10 20 07  20 44 33.587   -46 36 40.51  .24463 1.0383  93.1 18.7  336   9
2020 10 20 08  20 44 34.151   -46 36 41.09  .24470 1.0381  93.1 18.7  339   9
2020 10 20 09  20 44 34.719   -46 36 41.67  .24476 1.0380  93.1 18.7  343   9
2020 10 20 10  20 44 35.291   -46 36 42.22  .24483 1.0379  93.0 18.7  347   9
2020 10 20 11  20 44 35.869   -46 36 42.76  .24489 1.0377  93.0 18.7  350   9
2020 10 20 12  20 44 36.450   -46 36 43.28  .24496 1.0376  93.0 18.7  354   9
2020 10 20 13  20 44 37.037   -46 36 43.79  .24502 1.0375  92.9 18.7  358   9
2020 10 20 14  20 44 37.628   -46 36 44.28  .24509 1.0373  92.9 18.7  361   9
2020 10 20 15  20 44 38.223   -46 36 44.75  .24515 1.0372  92.9 18.7  365   9
2020 10 20 16  20 44 38.823   -46 36 45.21  .24522 1.0370  92.8 18.7  368   9
2020 10 20 17  20 44 39.427   -46 36 45.65  .24528 1.0369  92.8 18.7  372   9
2020 10 20 18  20 44 40.036   -46 36 46.08  .24535 1.0368  92.8 18.7  376   9
2020 10 20 19  20 44 40.650   -46 36 46.49  .24541 1.0366  92.7 18.7  379   9
2020 10 20 20  20 44 41.267   -46 36 46.88  .24548 1.0365  92.7 18.7  383   9
2020 10 20 21  20 44 41.890   -46 36 47.26  .24554 1.0364  92.7 18.7  386   9
2020 10 20 22  20 44 42.516   -46 36 47.62  .24561 1.0362  92.6 18.7  390   9
2020 10 20 23  20 44 43.147   -46 36 47.97  .24567 1.0361  92.6 18.7  394   9
2020 10 21 00  20 44 43.782   -46 36 48.30  .24573 1.0359  92.6 18.7  397   9
2020 10 21 01  20 44 44.422   -46 36 48.61  .24580 1.0358  92.5 18.7  401   8
2020 10 21 02  20 44 45.066   -46 36 48.91  .24586 1.0357  92.5 18.7  404   8
2020 10 21 03  20 44 45.714   -46 36 49.20  .24592 1.0355  92.4 18.7  408   8
2020 10 21 04  20 44 46.367   -46 36 49.47  .24599 1.0354  92.4 18.7  412   8
2020 10 21 05  20 44 47.024   -46 36 49.72  .24605 1.0353  92.4 18.7  415   8
2020 10 21 06  20 44 47.685   -46 36 49.96  .24611 1.0351  92.3 18.7  419   8
2020 10 21 07  20 44 48.350   -46 36 50.19  .24618 1.0350  92.3 18.7  422   8
2020 10 21 08  20 44 49.020   -46 36 50.40  .24624 1.0348  92.3 18.7  426   8
2020 10 21 09  20 44 49.693   -46 36 50.59  .24630 1.0347  92.2 18.7  429   8
2020 10 21 10  20 44 50.371   -46 36 50.77  .24636 1.0346  92.2 18.7  433   8
2020 10 21 11  20 44 51.053   -46 36 50.94  .24643 1.0344  92.2 18.7  437   8
2020 10 21 12  20 44 51.740   -46 36 51.09  .24649 1.0343  92.1 18.7  440   8
2020 10 21 13  20 44 52.430   -46 36 51.23  .24655 1.0341  92.1 18.7  444   8
2020 10 21 14  20 44 53.125   -46 36 51.35  .24661 1.0340  92.1 18.7  447   8
2020 10 21 15  20 44 53.823   -46 36 51.46  .24668 1.0339  92.0 18.7  451   8
2020 10 21 16  20 44 54.526   -46 36 51.55  .24674 1.0337  92.0 18.7  454   8
2020 10 21 17  20 44 55.233   -46 36 51.63  .24680 1.0336  92.0 18.7  458   8
2020 10 21 18  20 44 55.943   -46 36 51.69  .24686 1.0335  91.9 18.7  462   8
2020 10 21 19  20 44 56.658   -46 36 51.74  .24692 1.0333  91.9 18.7  465   8
2020 10 21 20  20 44 57.377   -46 36 51.78  .24699 1.0332  91.9 18.7  469   8
2020 10 21 21  20 44 58.100   -46 36 51.80  .24705 1.0330  91.8 18.7  472   8
2020 10 21 22  20 44 58.827   -46 36 51.81  .24711 1.0329  91.8 18.7  476   8